Overview Statistics Trail Chart Weather Telemetry Raw packets
 

This is the latest recevied weather packets stored in our database for station/object K5KVN. If no packets are shown the sender has not sent any weather packets the latest 10 day(s).

<< 9 10 11 12 13 14 15 >>
Time Temp. Humidity Pressure Rain* Wind** Luminosity Snow
1788528488 25.56° C 81% 1017.3 hPa 0 mm - - -
1788527830 25° C 84% 1017.3 hPa 0 mm - - -
1788527230 23.89° C 87% 1017.2 hPa 0 mm - - -
1788526630 23.33° C 88% 1017.2 hPa 0 mm - - -
1788526028 22.78° C 89% 1017.1 hPa 0 mm - - -
1788525428 22.22° C 90% 1017 hPa 0 mm - - -
1788524826 22.22° C 89% 1016.9 hPa 0 mm - - -
1788524287 22.22° C 89% 1016.9 hPa 0 mm - - -
1788523628 21.67° C 89% 1016.8 hPa 0 mm - - -
1788523026 21.67° C 88% 1016.7 hPa 0 mm - - -
1788522426 22.22° C 88% 1016.7 hPa 0 mm - - -
1788521828 22.22° C 87% 1016.7 hPa 0 mm - - -
1788521283 22.22° C 86% 1016.6 hPa 0 mm - - -
1788520622 22.78° C 86% 1016.4 hPa 0 mm - - -
1788520081 22.78° C 85% 1016.5 hPa 0 mm - - -
1788519482 23.33° C 84% 1016.6 hPa 0 mm - - -
1788518820 23.33° C 83% 1016.5 hPa 0 mm - - -
1788518218 23.89° C 82% 1016.3 hPa 0 mm - - -
1788517678 23.89° C 81% 1016.3 hPa 0 mm - - -
1788517016 24.44° C 81% 1016.3 hPa 0 mm - - -
1788516475 24.44° C 80% 1016.3 hPa 0 mm - - -
1788515815 24.44° C 81% 1016 hPa 0 mm - - -
1788515212 24.44° C 80% 1016 hPa 0 mm - - -
1788514611 24.44° C 81% 1015.9 hPa 0 mm - - -
1788514011 24.44° C 81% 1015.8 hPa 0 mm - - -

* Rain latest hour (hover to see other rain measurements)
** Current wind speed in m/s (hover to see current wind gust speed)